"Platform","Muskegon Pier"
"Latitude (deg)",43.2275
"Longitude (deg)",-86.3394
"Water Depth (m)",8
"Sensor Device","System Power Controller board voltage input"
"Sensor Type","Station 12V power voltage"
"Sensor Units","voltage"
"Measurement","A sample"
"Time means","Time at sample (UTC time zone)"

"Note:","This data was collected for research purposes."
"Note:","Minimal quality checking has been performed so data may contain known or unknown errors."
"Note:","Data provided by NOAA. Please credit NOAA."
"Note:","For more info see www.glerl.noaa.gov/res/recon"

"Time (UTC)","Power"
"YYYY/MM/DD HH:MM","volts"
2022/04/11 00:00, 15.10
2022/04/11 00:10, 15.03
2022/04/11 00:20, 15.08
2022/04/11 00:30, 15.12
2022/04/11 00:40, 15.13
2022/04/11 00:50, 15.08
2022/04/11 01:00, 14.67
2022/04/11 01:10, 15.06
2022/04/11 01:20, 15.08
2022/04/11 01:30, 15.06
2022/04/11 01:40, 15.07
2022/04/11 01:50, 15.03
2022/04/11 02:00, 15.02
2022/04/11 02:10, 15.07
2022/04/11 02:20, 15.06
2022/04/11 02:30, 15.29
2022/04/11 02:40, 15.21
2022/04/11 02:50, 15.15
2022/04/11 03:00, 15.01
2022/04/11 03:10, 15.16
2022/04/11 03:20, 15.01
2022/04/11 03:30, 15.01
2022/04/11 03:40, 15.28
2022/04/11 03:50, 15.07
2022/04/11 04:00, 15.11
2022/04/11 04:10, 15.16
2022/04/11 04:20, 15.10
2022/04/11 04:30, 14.99
2022/04/11 04:40, 14.99
2022/04/11 04:50, 15.01
2022/04/11 05:00, 15.29
2022/04/11 05:10, 15.12
2022/04/11 05:20, 15.12
2022/04/11 05:30, 15.25
2022/04/11 05:40, 15.24
2022/04/11 05:50, 15.03
2022/04/11 06:00, 14.99
2022/04/11 06:10, 15.00
2022/04/11 06:20, 15.12
2022/04/11 06:30, 15.08
2022/04/11 06:40, 15.10
2022/04/11 06:50, 15.12
2022/04/11 07:00, 15.02
2022/04/11 07:10, 15.01
2022/04/11 07:20, 15.06
2022/04/11 07:30, 15.01
2022/04/11 07:40, 15.08
2022/04/11 07:50, 15.02
2022/04/11 08:00, 14.97
2022/04/11 08:10, 15.17
2022/04/11 08:20, 15.22
2022/04/11 08:30, 15.22
2022/04/11 08:40, 15.02
2022/04/11 08:50, 15.02
2022/04/11 09:00, 15.09
2022/04/11 09:10, 15.06
2022/04/11 09:20, 15.21
2022/04/11 09:30, 15.13
2022/04/11 09:40, 15.09
2022/04/11 09:50, 15.03
2022/04/11 10:00, 15.06
2022/04/11 10:10, 15.02
2022/04/11 10:20, 15.04
2022/04/11 10:30, 14.99
2022/04/11 10:40, 15.12
2022/04/11 10:50, 15.13
2022/04/11 11:00, 14.97
2022/04/11 11:10, 15.09
2022/04/11 11:20, 15.00
2022/04/11 11:30, 15.22
2022/04/11 11:40, 15.02
2022/04/11 11:50, 15.03
2022/04/11 12:00, 15.07
2022/04/11 12:10, 15.12
2022/04/11 12:20, 15.12
2022/04/11 12:30, 15.08
2022/04/11 12:40, 15.12
2022/04/11 12:50, 15.08
2022/04/11 13:00, 15.07
2022/04/11 13:10, 15.08
2022/04/11 13:20, 15.08
2022/04/11 13:30, 15.05
2022/04/11 13:40, 15.14
2022/04/11 13:50, 15.26
2022/04/11 14:00, 15.10
2022/04/11 14:10, 15.10
2022/04/11 14:20, 15.07
2022/04/11 14:30, 15.09
2022/04/11 14:40, 15.08
2022/04/11 14:50, 15.07
2022/04/11 15:00, 15.07
2022/04/11 15:10, 15.06
2022/04/11 15:20, 15.13
2022/04/11 15:30, 15.13
2022/04/11 15:40, 15.08
2022/04/11 16:10, 14.59
2022/04/11 16:20, 14.60
2022/04/11 16:30, 14.63
2022/04/11 16:40, 14.74
2022/04/11 16:50, 14.67
2022/04/11 17:00, 14.53
2022/04/11 17:10, 14.65
2022/04/11 17:20, 14.56
2022/04/11 17:30, 14.56
2022/04/11 17:40, 14.57
2022/04/11 17:50, 14.64
2022/04/11 18:00, 14.61
2022/04/11 18:10, 14.69
2022/04/11 18:20, 14.66
2022/04/11 18:30, 14.67
2022/04/11 18:40, 14.56
2022/04/11 18:50, 14.58
2022/04/11 19:00, 14.56
2022/04/11 19:10, 14.58
2022/04/11 19:20, 14.71
2022/04/11 19:30, 14.68
2022/04/11 19:40, 14.68
2022/04/11 19:50, 14.60
2022/04/11 20:00, 14.62
2022/04/11 20:10, 14.61
2022/04/11 20:20, 14.68
2022/04/11 20:30, 14.67
2022/04/11 20:40, 14.73
2022/04/11 20:50, 14.58
2022/04/11 21:00, 14.75
2022/04/11 21:10, 14.76
2022/04/11 21:20, 14.71
2022/04/11 21:30, 14.67
2022/04/11 21:40, 14.69
2022/04/11 21:50, 14.62
2022/04/11 22:00, 14.58
2022/04/11 22:10, 14.64
2022/04/11 22:20, 14.73
2022/04/11 22:30, 14.61
2022/04/11 22:40, 14.69
2022/04/11 22:50, 14.65
2022/04/11 23:00, 14.57
2022/04/11 23:10, 14.55
2022/04/11 23:20, 14.57
2022/04/11 23:30, 14.71
2022/04/11 23:40, 14.70
2022/04/11 23:50, 14.77
2022/04/12 00:00, 14.70
2022/04/12 00:10, 14.60
2022/04/12 00:20, 14.56
2022/04/12 00:30, 14.56
2022/04/12 00:40, 14.64
2022/04/12 00:50, 14.67
2022/04/12 01:00, 14.68
2022/04/12 01:10, 14.56
2022/04/12 01:20, 14.66
2022/04/12 01:30, 14.53
2022/04/12 01:40, 14.57
2022/04/12 01:50, 14.70
2022/04/12 02:00, 14.69
2022/04/12 02:10, 14.69
2022/04/12 02:20, 14.66
2022/04/12 02:30, 14.58
2022/04/12 02:40, 14.71
2022/04/12 02:50, 14.60
2022/04/12 03:00, 14.73
2022/04/12 03:10, 14.67
2022/04/12 03:20, 14.62
2022/04/12 03:30, 14.55
2022/04/12 03:40, 14.69
2022/04/12 03:50, 14.58
2022/04/12 04:00, 14.73
2022/04/12 04:10, 14.71
2022/04/12 04:20, 14.64
2022/04/12 04:30, 14.59
2022/04/12 04:40, 14.54
2022/04/12 04:50, 14.60
2022/04/12 05:00, 14.75
2022/04/12 05:10, 14.69
2022/04/12 05:20, 14.69
2022/04/12 05:30, 14.56
2022/04/12 05:40, 14.62
2022/04/12 05:50, 14.70
2022/04/12 06:00, 14.67
2022/04/12 06:10, 14.67
2022/04/12 06:20, 14.69
2022/04/12 06:30, 14.60
2022/04/12 06:40, 14.68
2022/04/12 06:50, 14.58
2022/04/12 07:00, 14.55
2022/04/12 07:10, 14.68
2022/04/12 07:20, 14.64
2022/04/12 07:30, 14.61
2022/04/12 07:40, 14.61
2022/04/12 07:50, 14.56
2022/04/12 08:00, 14.67
2022/04/12 08:10, 14.57
2022/04/12 08:20, 14.57
2022/04/12 08:30, 14.56
2022/04/12 08:40, 14.63
2022/04/12 08:50, 14.72
2022/04/12 09:00, 14.56
2022/04/12 09:10, 14.56
2022/04/12 09:20, 14.54
2022/04/12 09:30, 14.65
2022/04/12 09:40, 14.72
2022/04/12 09:50, 14.66
2022/04/12 10:00, 14.65
2022/04/12 10:10, 14.72
2022/04/12 10:20, 14.67
2022/04/12 10:30, 14.74
2022/04/12 10:40, 14.68
2022/04/12 10:50, 14.56
2022/04/12 11:00, 14.62
2022/04/12 11:10, 14.71
2022/04/12 11:20, 14.58
2022/04/12 11:30, 14.71
2022/04/12 11:40, 14.65
2022/04/12 11:50, 14.68
2022/04/12 12:00, 14.59
2022/04/12 12:10, 14.65
2022/04/12 12:20, 14.59
2022/04/12 12:30, 14.55
2022/04/12 12:40, 14.72
2022/04/12 12:50, 14.67
2022/04/12 13:00, 14.68
2022/04/12 13:10, 14.54
2022/04/12 13:20, 14.69
2022/04/12 13:30, 14.56
2022/04/12 13:40, 14.71
2022/04/12 13:50, 14.69
2022/04/12 14:00, 14.68
2022/04/12 14:10, 14.62
2022/04/12 14:20, 14.64
2022/04/12 14:30, 14.66
2022/04/12 14:40, 14.71
2022/04/12 14:50, 14.67
2022/04/12 15:00, 14.61
2022/04/12 15:10, 14.60
2022/04/12 15:20, 14.54
2022/04/12 15:30, 14.56
2022/04/12 15:40, 14.73
2022/04/12 15:50, 14.58
2022/04/12 16:00, 14.53
2022/04/12 16:10, 14.73
2022/04/12 16:20, 14.55
2022/04/12 16:30, 14.59
2022/04/12 16:40, 14.55
2022/04/12 16:50, 14.55
2022/04/12 17:00, 14.54
2022/04/12 17:10, 14.69
2022/04/12 17:20, 14.70
2022/04/12 17:30, 14.69
2022/04/12 17:40, 14.69
2022/04/12 17:50, 14.58
2022/04/12 18:00, 14.63
2022/04/12 18:10, 14.70
2022/04/12 18:20, 14.58
2022/04/12 18:30, 14.53
2022/04/12 18:40, 14.55
2022/04/12 18:50, 14.54
2022/04/12 19:00, 14.65
2022/04/12 19:10, 14.61
2022/04/12 19:20, 14.66
2022/04/12 19:30, 14.59
2022/04/12 19:40, 14.53
2022/04/12 19:50, 14.60
2022/04/12 20:00, 14.63
2022/04/12 20:10, 14.51
2022/04/12 20:20, 14.64
2022/04/12 20:30, 14.74
2022/04/12 20:40, 14.67
2022/04/12 20:50, 14.70
2022/04/12 21:00, 14.57
2022/04/12 21:10, 14.74
2022/04/12 21:20, 14.69
2022/04/12 21:30, 14.59
2022/04/12 21:40, 14.58
2022/04/12 21:50, 14.65
2022/04/12 22:00, 14.59
2022/04/12 22:10, 14.66
2022/04/12 22:20, 14.59
2022/04/12 22:30, 14.66
2022/04/12 22:40, 14.71
2022/04/12 22:50, 14.60
2022/04/12 23:00, 14.66
2022/04/12 23:10, 14.67
2022/04/12 23:20, 14.65
2022/04/12 23:30, 14.55
2022/04/12 23:40, 14.55
2022/04/12 23:50, 14.56
2022/04/13 00:00, 14.69
2022/04/13 00:10, 14.65
2022/04/13 00:20, 14.69
2022/04/13 00:30, 14.74
2022/04/13 00:40, 14.64
2022/04/13 00:50, 14.67
2022/04/13 01:00, 14.74
2022/04/13 01:10, 14.62
2022/04/13 01:20, 14.56
2022/04/13 01:30, 14.62
2022/04/13 01:40, 14.73
2022/04/13 01:50, 14.62
2022/04/13 02:00, 14.68
2022/04/13 02:10, 14.75
2022/04/13 02:20, 14.74
2022/04/13 02:30, 14.67
2022/04/13 02:40, 14.57
2022/04/13 02:50, 14.57
2022/04/13 03:00, 14.56
2022/04/13 03:10, 14.60
2022/04/13 03:20, 14.61
2022/04/13 03:30, 14.70
2022/04/13 03:40, 14.67
2022/04/13 03:50, 14.60
2022/04/13 04:00, 14.54
2022/04/13 04:10, 14.58
2022/04/13 04:20, 14.64
2022/04/13 04:30, 14.63
2022/04/13 04:40, 14.70
2022/04/13 04:50, 14.72
2022/04/13 05:00, 14.66
2022/04/13 05:10, 14.71
2022/04/13 05:20, 14.60
2022/04/13 05:30, 14.58
2022/04/13 05:40, 14.60
2022/04/13 05:50, 14.60
2022/04/13 06:00, 14.62
2022/04/13 06:10, 14.70
2022/04/13 06:20, 14.60
2022/04/13 06:30, 14.66
2022/04/13 06:40, 14.55
2022/04/13 06:50, 14.56
2022/04/13 07:00, 14.58
2022/04/13 07:10, 14.63
2022/04/13 07:20, 14.63
2022/04/13 07:30, 14.64
2022/04/13 07:40, 14.70
2022/04/13 07:50, 14.74
2022/04/13 08:00, 14.67
2022/04/13 08:10, 14.71
2022/04/13 08:20, 14.55
2022/04/13 08:30, 14.58
2022/04/13 08:40, 14.59
2022/04/13 08:50, 14.63
2022/04/13 09:00, 14.61
2022/04/13 09:10, 14.60
2022/04/13 09:20, 14.75
2022/04/13 09:30, 14.70
2022/04/13 09:40, 14.56
2022/04/13 09:50, 14.68
2022/04/13 10:00, 14.61
2022/04/13 10:10, 14.63
2022/04/13 10:20, 14.69
2022/04/13 10:30, 14.66
2022/04/13 10:40, 14.68
2022/04/13 10:50, 14.66
2022/04/13 11:00, 14.61
2022/04/13 11:10, 14.58
2022/04/13 11:20, 14.67
2022/04/13 11:30, 14.57
2022/04/13 11:40, 14.73
2022/04/13 11:50, 14.67
2022/04/13 12:00, 14.70
2022/04/13 12:10, 14.54
2022/04/13 12:20, 14.60
2022/04/13 12:30, 14.56
2022/04/13 12:40, 14.60
2022/04/13 12:50, 14.63
2022/04/13 13:00, 14.70
2022/04/13 13:10, 14.62
2022/04/13 13:20, 14.69
2022/04/13 13:30, 14.54
2022/04/13 13:40, 14.54
2022/04/13 13:50, 14.61
2022/04/13 14:00, 14.62
2022/04/13 14:10, 14.71
2022/04/13 14:20, 14.73
2022/04/13 14:30, 14.68
2022/04/13 14:40, 14.69
2022/04/13 14:50, 14.54
2022/04/13 15:00, 14.56
2022/04/13 15:10, 14.58
2022/04/13 15:20, 14.55
2022/04/13 15:30, 14.59
2022/04/13 15:40, 14.56
2022/04/13 15:50, 14.60
2022/04/13 16:00, 14.69
2022/04/13 16:10, 14.54
2022/04/13 16:20, 14.67
2022/04/13 16:30, 14.68
2022/04/13 16:40, 14.61
2022/04/13 16:50, 14.61
2022/04/13 17:00, 14.52
2022/04/13 17:10, 14.55
2022/04/13 17:20, 14.63
2022/04/13 17:30, 14.55
2022/04/13 17:40, 14.66
2022/04/13 17:50, 14.65
2022/04/13 18:00, 14.59
2022/04/13 18:10, 14.71
2022/04/13 18:20, 14.53
2022/04/13 18:30, 14.52
2022/04/13 18:40, 14.56
2022/04/13 18:50, 14.56
2022/04/13 19:00, 14.63
2022/04/13 19:10, 14.60
2022/04/13 19:20, 14.65
2022/04/13 19:30, 14.68
2022/04/13 19:40, 14.54
2022/04/13 19:50, 14.57
2022/04/13 20:00, 14.55
2022/04/13 20:10, 14.57
2022/04/13 20:20, 14.61
2022/04/13 20:30, 14.65
2022/04/13 20:40, 14.69
2022/04/13 20:50, 14.51
2022/04/13 21:00, 14.52
2022/04/13 21:10, 14.49
2022/04/13 21:20, 14.54
2022/04/13 21:30, 14.55
2022/04/13 21:40, 14.55
2022/04/13 21:50, 14.60
2022/04/13 22:00, 14.69
2022/04/13 22:10, 14.61
2022/04/13 22:20, 14.68
2022/04/13 22:30, 14.69
2022/04/13 22:40, 14.76
2022/04/13 22:50, 14.66
2022/04/13 23:00, 14.61
2022/04/13 23:10, 14.56
2022/04/13 23:20, 14.61
2022/04/13 23:30, 14.72
2022/04/13 23:40, 14.72
2022/04/13 23:50, 14.66
2022/04/14 00:00, 14.65
2022/04/14 00:10, 14.66
2022/04/14 00:20, 14.57
2022/04/14 00:30, 14.55
2022/04/14 00:40, 14.71
2022/04/14 00:50, 14.74
2022/04/14 01:00, 14.71
2022/04/14 01:10, 14.70
2022/04/14 01:20, 14.73
2022/04/14 01:30, 14.64
2022/04/14 01:40, 14.65
2022/04/14 01:50, 14.56
2022/04/14 02:00, 14.59
2022/04/14 02:10, 14.59
2022/04/14 02:20, 14.61
2022/04/14 02:30, 14.57
2022/04/14 02:40, 14.68
2022/04/14 02:50, 14.67
2022/04/14 03:00, 14.64
2022/04/14 03:10, 14.68
2022/04/14 03:20, 14.74
2022/04/14 03:30, 14.62
2022/04/14 03:40, 14.54
2022/04/14 03:50, 14.56
2022/04/14 04:00, 14.65
2022/04/14 04:10, 14.69
2022/04/14 04:20, 14.64
2022/04/14 04:30, 14.70
2022/04/14 04:40, 14.77
2022/04/14 04:50, 14.67
2022/04/14 05:00, 14.56
2022/04/14 05:10, 14.58
2022/04/14 05:20, 14.66
2022/04/14 05:30, 14.59
2022/04/14 05:40, 14.75
2022/04/14 05:50, 14.69
2022/04/14 06:00, 14.60
2022/04/14 06:10, 14.73
2022/04/14 06:20, 14.56
2022/04/14 06:30, 14.60
2022/04/14 06:40, 14.57
2022/04/14 06:50, 14.74
2022/04/14 07:00, 14.69
2022/04/14 07:10, 14.74
2022/04/14 07:20, 14.70
2022/04/14 07:30, 14.68
2022/04/14 07:40, 14.62
2022/04/14 07:50, 14.69
2022/04/14 08:00, 14.74
2022/04/14 08:10, 14.72
2022/04/14 08:20, 14.71
2022/04/14 08:30, 14.70
2022/04/14 08:40, 14.66
2022/04/14 08:50, 14.59
2022/04/14 09:00, 14.67
2022/04/14 09:10, 14.60
2022/04/14 09:20, 14.59
2022/04/14 09:30, 14.65
2022/04/14 09:40, 14.70
2022/04/14 09:50, 14.71
2022/04/14 10:00, 14.59
2022/04/14 10:10, 14.54
2022/04/14 10:20, 14.59
2022/04/14 10:30, 14.65
2022/04/14 10:40, 14.68
2022/04/14 10:50, 14.67
2022/04/14 11:00, 14.66
2022/04/14 11:10, 14.60
2022/04/14 11:20, 14.54
2022/04/14 11:30, 14.63
2022/04/14 11:40, 14.60
2022/04/14 11:50, 14.58
2022/04/14 12:00, 14.64
2022/04/14 12:10, 14.58
2022/04/14 12:20, 14.58
2022/04/14 12:30, 14.64
2022/04/14 12:40, 14.68
2022/04/14 12:50, 14.71
2022/04/14 13:00, 14.62
2022/04/14 13:10, 14.58
2022/04/14 13:20, 14.65
2022/04/14 13:30, 14.74
2022/04/14 13:40, 14.67
2022/04/14 13:50, 14.70
2022/04/14 14:00, 14.55
2022/04/14 14:10, 14.51
2022/04/14 14:20, 14.56
2022/04/14 14:30, 14.56
2022/04/14 14:40, 14.66
2022/04/14 14:50, 14.57
2022/04/14 15:00, 14.51
2022/04/14 15:10, 14.52
2022/04/14 15:20, 14.58
2022/04/14 15:30, 14.73
2022/04/14 15:40, 14.59
2022/04/14 15:50, 14.61
2022/04/14 16:00, 14.70
2022/04/14 16:10, 14.71
2022/04/14 16:20, 14.67
2022/04/14 16:30, 14.57
2022/04/14 16:40, 14.59
2022/04/14 16:50, 14.70
2022/04/14 17:00, 14.65
2022/04/14 17:10, 14.57
2022/04/14 17:20, 14.63
2022/04/14 17:30, 14.62
2022/04/14 17:40, 14.58
2022/04/14 17:50, 14.53
2022/04/14 18:00, 14.64
2022/04/14 18:10, 14.65
2022/04/14 18:20, 14.58
2022/04/14 18:30, 14.74
2022/04/14 18:40, 14.55
2022/04/14 18:50, 14.66
2022/04/14 19:00, 14.71
2022/04/14 19:10, 14.61
2022/04/14 19:20, 14.71
2022/04/14 19:30, 14.58
2022/04/14 19:40, 14.64
2022/04/14 19:50, 14.69
2022/04/14 20:00, 14.70
2022/04/14 20:10, 14.71
2022/04/14 20:20, 14.69
2022/04/14 20:30, 14.69
2022/04/14 20:40, 14.60
2022/04/14 20:50, 14.56
2022/04/14 21:00, 14.70
2022/04/14 21:10, 14.67
2022/04/14 21:20, 14.69
2022/04/14 21:30, 14.69
2022/04/14 21:40, 14.67
2022/04/14 21:50, 14.59
2022/04/14 22:00, 14.39
2022/04/14 22:10, 14.62
2022/04/14 22:20, 14.69
2022/04/14 22:30, 14.71
2022/04/14 22:40, 14.60
2022/04/14 22:50, 14.53
2022/04/14 23:00, 14.56
2022/04/14 23:10, 14.55
2022/04/14 23:20, 14.63
2022/04/14 23:30, 14.68
2022/04/14 23:40, 14.62
2022/04/14 23:50, 14.67
2022/04/15 00:00, 14.57
2022/04/15 00:10, 14.62
2022/04/15 00:20, 14.64
2022/04/15 00:30, 14.61
2022/04/15 00:40, 14.73
2022/04/15 00:50, 14.73
2022/04/15 01:00, 14.59
2022/04/15 01:10, 14.52
2022/04/15 01:20, 14.71
2022/04/15 01:30, 14.63
2022/04/15 01:40, 14.63
2022/04/15 01:50, 14.56
2022/04/15 02:00, 14.68
2022/04/15 02:10, 14.60
2022/04/15 02:20, 14.64
2022/04/15 02:30, 14.71
2022/04/15 02:40, 14.66
2022/04/15 02:50, 14.71
2022/04/15 03:00, 14.55
2022/04/15 03:10, 14.57
2022/04/15 03:20, 14.58
2022/04/15 03:30, 14.58
2022/04/15 03:40, 14.62
2022/04/15 03:50, 14.64
2022/04/15 04:00, 14.69
2022/04/15 04:10, 14.70
2022/04/15 04:20, 14.57
2022/04/15 04:30, 14.55
2022/04/15 04:40, 14.59
2022/04/15 04:50, 14.68
2022/04/15 05:00, 14.56
2022/04/15 05:10, 14.66
2022/04/15 05:20, 14.56
2022/04/15 05:30, 14.58
2022/04/15 05:40, 14.60
2022/04/15 05:50, 14.74
2022/04/15 06:00, 14.70
2022/04/15 06:10, 14.64
2022/04/15 06:20, 14.66
2022/04/15 06:30, 14.71
2022/04/15 06:40, 14.65
2022/04/15 06:50, 14.56
2022/04/15 07:00, 14.65
2022/04/15 07:10, 14.65
2022/04/15 07:20, 14.57
2022/04/15 07:30, 14.58
2022/04/15 07:40, 14.51
2022/04/15 07:50, 14.57
2022/04/15 08:00, 14.70
2022/04/15 08:10, 14.70
2022/04/15 08:20, 14.65
2022/04/15 08:30, 14.56
2022/04/15 08:40, 14.59
2022/04/15 08:50, 14.57
2022/04/15 09:00, 14.56
2022/04/15 09:10, 14.67
2022/04/15 09:20, 14.63
2022/04/15 09:30, 14.63
2022/04/15 09:40, 14.52
2022/04/15 09:50, 14.61
2022/04/15 10:00, 14.68
2022/04/15 10:10, 14.53
2022/04/15 10:20, 14.68
2022/04/15 10:30, 14.69
2022/04/15 10:40, 14.49
2022/04/15 10:50, 14.54
2022/04/15 11:00, 14.68
2022/04/15 11:10, 14.64
2022/04/15 11:20, 14.64
2022/04/15 11:30, 14.63
2022/04/15 11:40, 14.59
2022/04/15 11:50, 14.61
2022/04/15 12:00, 14.57
2022/04/15 12:10, 14.53
2022/04/15 12:20, 14.70
2022/04/15 12:30, 14.70
2022/04/15 12:40, 14.56
2022/04/15 12:50, 14.54
2022/04/15 13:00, 14.55
2022/04/15 13:10, 14.52
2022/04/15 13:20, 14.54
2022/04/15 13:30, 14.70
2022/04/15 13:40, 14.67
2022/04/15 13:50, 14.69
2022/04/15 14:00, 14.61
2022/04/15 14:10, 14.57
2022/04/15 14:20, 14.68
2022/04/15 14:30, 14.57
2022/04/15 14:40, 14.56
2022/04/15 14:50, 14.65
2022/04/15 15:00, 14.70
2022/04/15 15:10, 14.65
2022/04/15 15:20, 14.65
2022/04/15 15:30, 14.61
2022/04/15 15:40, 14.59
2022/04/15 15:50, 14.57
2022/04/15 16:00, 14.54
2022/04/15 16:10, 14.57
2022/04/15 16:20, 14.54
2022/04/15 16:30, 14.51
2022/04/15 16:40, 14.68
2022/04/15 16:50, 14.73
2022/04/15 17:00, 14.70
2022/04/15 17:10, 14.52
2022/04/15 17:20, 14.66
2022/04/15 17:30, 14.61
2022/04/15 17:40, 14.66
2022/04/15 17:50, 14.69
2022/04/15 18:00, 14.63
2022/04/15 18:10, 14.65
2022/04/15 18:20, 14.70
2022/04/15 18:30, 14.71
2022/04/15 18:40, 14.62
2022/04/15 18:50, 14.59
2022/04/15 19:00, 14.61
2022/04/15 19:10, 14.56
2022/04/15 19:20, 14.74
2022/04/15 19:30, 14.67
2022/04/15 19:40, 14.66
2022/04/15 19:50, 14.48
2022/04/15 20:00, 14.61
2022/04/15 20:10, 14.60
2022/04/15 20:20, 14.59
2022/04/15 20:30, 14.66
2022/04/15 20:40, 14.62
2022/04/15 20:50, 14.57
2022/04/15 21:00, 14.57
2022/04/15 21:10, 14.57
2022/04/15 21:20, 14.62
2022/04/15 21:30, 14.69
2022/04/15 21:40, 14.67
2022/04/15 21:50, 14.65
2022/04/15 22:00, 14.60
2022/04/15 22:10, 14.67
2022/04/15 22:20, 14.67
2022/04/15 22:30, 14.58
2022/04/15 22:40, 14.69
2022/04/15 22:50, 14.57
2022/04/15 23:00, 14.62
2022/04/15 23:10, 14.60
2022/04/15 23:20, 14.64
2022/04/15 23:30, 14.71
2022/04/15 23:40, 14.69
2022/04/15 23:50, 14.59
2022/04/16 00:00, 14.67
2022/04/16 00:10, 14.68
2022/04/16 00:20, 14.70
2022/04/16 00:30, 14.64
2022/04/16 00:40, 14.60
2022/04/16 00:50, 14.55
2022/04/16 01:00, 14.57
2022/04/16 01:10, 14.60
2022/04/16 01:20, 14.66
2022/04/16 01:30, 14.71
2022/04/16 01:40, 14.66
2022/04/16 01:50, 14.58
2022/04/16 02:00, 14.57
2022/04/16 02:10, 14.62
2022/04/16 02:20, 14.56
2022/04/16 02:30, 14.66
2022/04/16 02:40, 14.69
2022/04/16 02:50, 14.54
2022/04/16 03:00, 14.71
2022/04/16 03:10, 14.68
2022/04/16 03:20, 14.62
2022/04/16 03:30, 14.62
2022/04/16 03:40, 14.65
2022/04/16 03:50, 14.58
2022/04/16 04:00, 14.59
2022/04/16 04:10, 14.55
2022/04/16 04:20, 14.69
2022/04/16 04:30, 14.67
2022/04/16 04:40, 14.66
2022/04/16 04:50, 14.59
2022/04/16 05:00, 14.71
2022/04/16 05:10, 14.59
2022/04/16 05:20, 14.63
2022/04/16 05:30, 14.69
2022/04/16 05:40, 14.62
2022/04/16 05:50, 14.71
2022/04/16 06:00, 14.65
2022/04/16 06:10, 14.66
2022/04/16 06:20, 14.64
2022/04/16 06:30, 14.61
2022/04/16 06:40, 14.55
2022/04/16 06:50, 14.63
2022/04/16 07:00, 14.56
2022/04/16 07:10, 14.62
2022/04/16 07:20, 14.62
2022/04/16 07:30, 14.63
2022/04/16 07:40, 14.67
2022/04/16 07:50, 14.71
2022/04/16 08:00, 14.56
2022/04/16 08:10, 14.59
2022/04/16 08:20, 14.63
2022/04/16 08:30, 14.58
2022/04/16 08:40, 14.58
2022/04/16 08:50, 14.72
2022/04/16 09:00, 14.66
2022/04/16 09:10, 14.60
2022/04/16 09:20, 14.56
2022/04/16 09:30, 14.60
2022/04/16 09:40, 14.56
2022/04/16 09:50, 14.68
2022/04/16 10:00, 14.72
2022/04/16 10:10, 14.69
2022/04/16 10:20, 14.73
2022/04/16 10:30, 14.62
2022/04/16 10:40, 14.54
2022/04/16 10:50, 14.64
2022/04/16 11:00, 14.56
2022/04/16 11:10, 14.76
2022/04/16 11:20, 14.58
2022/04/16 11:30, 14.71
2022/04/16 11:40, 14.66
2022/04/16 11:50, 14.66
2022/04/16 12:00, 14.61
2022/04/16 12:10, 14.59
2022/04/16 12:20, 14.55
2022/04/16 12:30, 14.63
2022/04/16 12:40, 14.60
2022/04/16 12:50, 14.64
2022/04/16 13:00, 14.68
2022/04/16 13:10, 14.55
2022/04/16 13:20, 14.65
2022/04/16 13:30, 14.61
2022/04/16 13:40, 14.64
2022/04/16 13:50, 14.62
2022/04/16 14:00, 14.67
2022/04/16 14:10, 14.68
2022/04/16 14:20, 14.67
2022/04/16 14:30, 14.62
2022/04/16 14:40, 14.54
2022/04/16 14:50, 14.68
2022/04/16 15:00, 14.56
2022/04/16 15:10, 14.65
2022/04/16 15:20, 14.66
2022/04/16 15:30, 14.60
2022/04/16 15:40, 14.63
2022/04/16 15:50, 14.66
2022/04/16 16:00, 14.58
2022/04/16 16:10, 14.73
2022/04/16 16:20, 14.56
2022/04/16 16:30, 14.59
2022/04/16 16:40, 14.62
2022/04/16 16:50, 14.60
2022/04/16 17:00, 14.71
2022/04/16 17:10, 14.59
2022/04/16 17:20, 14.74
2022/04/16 17:30, 14.58
2022/04/16 17:40, 14.72
2022/04/16 17:50, 14.71
2022/04/16 18:00, 14.59
2022/04/16 18:10, 14.56
2022/04/16 18:20, 14.60
2022/04/16 18:30, 14.68
2022/04/16 18:40, 14.54
2022/04/16 18:50, 14.67
2022/04/16 19:00, 14.61
2022/04/16 19:10, 14.58
2022/04/16 19:20, 14.64
2022/04/16 19:30, 14.59
2022/04/16 19:40, 14.56
2022/04/16 19:50, 14.73
2022/04/16 20:00, 14.69
2022/04/16 20:10, 14.75
2022/04/16 20:20, 14.60
2022/04/16 20:30, 14.71
2022/04/16 20:40, 14.56
2022/04/16 20:50, 14.63
2022/04/16 21:00, 14.63
2022/04/16 21:10, 14.56
2022/04/16 21:20, 14.56
2022/04/16 21:30, 14.65
2022/04/16 21:40, 14.62
2022/04/16 21:50, 14.59
2022/04/16 22:00, 14.59
2022/04/16 22:10, 14.60
2022/04/16 22:20, 14.56
2022/04/16 22:30, 14.70
2022/04/16 22:40, 14.57
2022/04/16 22:50, 14.64
2022/04/16 23:00, 14.63
2022/04/16 23:10, 14.75
2022/04/16 23:20, 14.58
2022/04/16 23:30, 14.66
2022/04/16 23:40, 14.53
2022/04/16 23:50, 14.57
2022/04/17 00:00, 14.59
2022/04/17 00:10, 14.59
2022/04/17 00:20, 14.58
2022/04/17 00:30, 14.62
2022/04/17 00:40, 14.59
2022/04/17 00:50, 14.60
2022/04/17 01:00, 14.68
2022/04/17 01:10, 14.70
2022/04/17 01:20, 14.71
2022/04/17 01:30, 14.73
2022/04/17 01:40, 14.55
2022/04/17 01:50, 14.68
2022/04/17 02:00, 14.62
2022/04/17 02:10, 14.72
2022/04/17 02:20, 14.64
2022/04/17 02:30, 14.69
2022/04/17 02:40, 14.58
2022/04/17 02:50, 14.71
2022/04/17 03:00, 14.68
2022/04/17 03:10, 14.57
2022/04/17 03:20, 14.57
2022/04/17 03:30, 14.60
2022/04/17 03:40, 14.61
2022/04/17 03:50, 14.71
2022/04/17 04:00, 14.71
2022/04/17 04:10, 14.60
2022/04/17 04:20, 14.74
2022/04/17 04:30, 14.63
2022/04/17 04:40, 14.64
2022/04/17 04:50, 14.57
2022/04/17 05:00, 14.57
2022/04/17 05:10, 14.64
2022/04/17 05:20, 14.68
2022/04/17 05:30, 14.63
2022/04/17 05:40, 14.63
2022/04/17 05:50, 14.64
2022/04/17 06:00, 14.64
2022/04/17 06:10, 14.54
2022/04/17 06:20, 14.70
2022/04/17 06:30, 14.55
2022/04/17 06:40, 14.62
2022/04/17 06:50, 14.71
2022/04/17 07:00, 14.75
2022/04/17 07:10, 14.71
2022/04/17 07:20, 14.72
2022/04/17 07:30, 14.66
2022/04/17 07:40, 14.61
2022/04/17 07:50, 14.63
2022/04/17 08:00, 14.56
2022/04/17 08:10, 14.71
2022/04/17 08:20, 14.65
2022/04/17 08:30, 14.68
2022/04/17 08:40, 14.56
2022/04/17 08:50, 14.61
2022/04/17 09:00, 14.65
2022/04/17 09:10, 14.70
2022/04/17 09:20, 14.59
2022/04/17 09:30, 14.62
2022/04/17 09:40, 14.63
2022/04/17 09:50, 14.68
2022/04/17 10:00, 14.57
2022/04/17 10:10, 14.65
2022/04/17 10:20, 14.55
2022/04/17 10:30, 14.61
2022/04/17 10:40, 14.72
2022/04/17 10:50, 14.70
2022/04/17 11:00, 14.72
2022/04/17 11:10, 14.68
2022/04/17 11:20, 14.57
2022/04/17 11:30, 14.59
2022/04/17 11:40, 14.66
2022/04/17 11:50, 14.61